This demonstration page uses our WeatherBlox Daily Observations layout. Learn more.

Left ArrowRight Arrow

53.62937, 11.41316

Hourly Observations for August 12, 2021

Temp ( °F °C ) Dew Point ( °F °C ) Humidity (%) Winds ( mph kmh ) Pressure ( in mb ) Visibility ( mi km ) Precip ( " mm )
6:20 am 06:20 Partly Cloudy with Mist and Fog 54 12 54 12 100 100 VRB 1 2 30.12 1020 1 2 N/A
6:50 am 06:50 Partly Cloudy with Areas of Fog 57 14 57 14 100 100 VRB 1 2 30.12 1020 30 48 N/A
7:20 am 07:20 Mostly Sunny 59 15 57 14 94 94 VRB 1 2 30.12 1020 7 11 N/A
7:50 am 07:50 Mostly Sunny 61 16 57 14 88 88 VRB 2 4 30.12 1020 7 11 N/A
8:20 am 08:20 Mostly Sunny 63 17 57 14 83 83 SE 5 7 30.12 1020 7 11 N/A
8:50 am 08:50 Mostly Sunny 66 19 57 14 73 73 SE 6 9 30.12 1020 7 11 N/A
9:20 am 09:20 Mostly Sunny 68 20 59 15 73 73 S 5 7 30.12 1020 7 11 N/A
9:50 am 09:50 Mostly Sunny 70 21 57 14 64 64 SSE 5 7 30.12 1020 7 11 N/A
10:20 am 10:20 Mostly Sunny 72 22 57 14 61 61 SSE 5 7 30.12 1020 7 11 N/A
10:50 am 10:50 Mostly Sunny 73 23 55 13 53 53 S 6 9 30.12 1020 7 11 N/A
11:20 am 11:20 Mostly Sunny 75 24 55 13 50 50 SSE 7 11 30.12 1020 7 11 N/A
11:50 am 11:50 Mostly Sunny 75 24 55 13 50 50 ESE 9 15 30.12 1020 7 11 N/A
12:20 pm 12:20 Mostly Sunny 77 25 57 14 51 51 ESE 8 13 30.12 1020 7 11 N/A
12:50 pm 12:50 Mostly Sunny 77 25 57 14 51 51 ESE 8 13 30.12 1020 7 11 N/A
1:20 pm 13:20 Mostly Sunny 79 26 57 14 48 48 ESE 8 13 30.12 1020 7 11 N/A
1:50 pm 13:50 Mostly Sunny 79 26 57 14 48 48 ESE 9 15 30.09 1019 7 11 N/A
2:20 pm 14:20 Mostly Sunny 79 26 55 13 45 45 S 9 15 30.09 1019 7 11 N/A
2:50 pm 14:50 Mostly Sunny 81 27 57 14 45 45 S 7 11 30.09 1019 7 11 N/A
3:20 pm 15:20 Mostly Sunny 81 27 57 14 45 45 S 9 15 30.09 1019 7 11 N/A
3:50 pm 15:50 Mostly Sunny 81 27 57 14 45 45 SSE 6 9 30.09 1019 7 11 N/A
4:20 pm 16:20 Mostly Sunny 81 27 57 14 45 45 SSE 6 9 30.09 1019 7 11 N/A
4:50 pm 16:50 Mostly Sunny 81 27 57 14 45 45 S 8 13 30.06 1018 7 11 N/A
5:20 pm 17:20 Mostly Sunny 81 27 57 14 45 45 S 8 13 30.06 1018 7 11 N/A
5:50 pm 17:50 Mostly Sunny 81 27 57 14 45 45 ESE 6 9 30.06 1018 7 11 N/A
6:20 pm 18:20 Mostly Sunny 79 26 57 14 48 48 SSE 6 9 30.06 1018 7 11 N/A
6:50 pm 18:50 Mostly Sunny 81 27 57 14 45 45 S 3 6 30.06 1018 7 11 N/A
7:20 pm 19:20 Mostly Sunny 79 26 59 15 51 51 S 3 6 30.06 1018 7 11 N/A
7:50 pm 19:50 Mostly Sunny 77 25 59 15 54 54 VRB 1 2 30.06 1018 7 11 N/A
8:20 pm 20:20 Mostly Sunny 75 24 61 16 61 61 VRB 1 2 30.06 1018 7 11 N/A
8:50 pm 20:50 Mostly Sunny 72 22 63 17 73 73 VRB 1 2 30.06 1018 7 11 N/A
9:20 pm 21:20 Mostly Clear 70 21 61 16 73 73 VRB 1 2 30.06 1018 7 11 N/A
9:50 pm 21:50 Mostly Clear 68 20 61 16 78 78 N N/A 30.06 1018 7 11 N/A

Powered by AerisWeather